{"data":{"norad_id":64055,"epoch":"2026-09-21T22:25:31.614816Z","epoch_age_seconds":71506,"freshness":"FRESH","line1":"1 64055U 25104A   26264.93439369  .00002635  00000+0  20897-3 0  9992","line2":"2 64055  42.0032 105.0771 0014783 252.1005 107.8210 15.02452724 73980","mean_motion":15.02452724,"eccentricity":0.0014783,"inclination_deg":42.0032,"raan_deg":105.0771,"arg_perigee_deg":252.1005,"mean_anomaly_deg":107.821,"bstar":0.00020897,"rev_number":7398,"period_min":95.843281921462,"perigee_km":549.08020290291,"apogee_km":569.59153518753,"semimajor_km":6937.4728690452,"source":"CELESTRAK","updated_at":"2026-09-22T09:00:29.524038Z"}}